Total_Precipitation_Accumulation
2.66 2.95 3.09 2.32 1.92 1.83 1.96 1.97 1.94 1.90 1.99 2.10 2.10 2.15 2.10 2.24 2.37 2.35 2.45 2.76 2.99 3.29 3.82 3.94 3.70 3.31 2.90 2.72 2.62 2.36 2.06 2.05 2.07 2.04 2.00 2.01 2.10 2.36 2.78 2.55 2.34 1.75 1.66
2.13 2.43 2.55 2.03 1.68 1.67 1.72 1.76 1.76 1.75 1.78 1.77 1.86 2.09 2.23 2.40 2.62 2.60 2.83 3.22 3.54 3.89 3.86 3.51 3.14 2.73 2.62 2.47 2.32 2.18 2.07 2.13 2.20 2.15 2.04 1.89 2.18 2.51 2.80 2.66 2.59 1.76 1.70
1.60 1.80 1.78 1.81 1.60 1.54 1.52 1.52 1.55 1.58 1.65 1.60 1.71 2.05 2.29 2.54 2.87 3.06 3.28 3.52 3.81 3.79 3.34 2.98 2.55 2.32 2.29 2.15 2.05 2.03 2.03 2.15 2.26 2.41 2.38 1.81 1.77 2.51 2.60 2.45 2.05 1.55 1.54
1.30 1.37 1.33 1.53 1.54 1.48 1.39 1.31 1.32 1.41 1.52 1.59 1.73 2.04 2.33 2.57 2.91 3.05 3.22 3.42 3.53 3.29 3.02 2.56 2.21 2.09 2.00 1.80 1.71 1.73 1.86 2.11 2.37 2.71 2.61 2.02 1.37 1.93 2.27 2.08 1.75 1.46 1.41
1.15 1.16 1.39 1.47 1.42 1.40 1.25 1.23 1.28 1.38 1.46 1.57 1.72 2.02 2.34 2.70 2.90 2.98 2.98 3.18 3.04 2.82 2.64 2.40 2.18 1.94 1.75 1.58 1.50 1.56 1.76 2.12 2.38 2.52 2.25 2.14 1.89 2.00 2.04 1.91 1.71 1.61 1.50
1.04 1.12 1.31 1.42 1.38 1.48 1.32 1.24 1.36 1.45 1.57 1.69 1.94 2.16 2.24 2.52 2.64 2.66 2.78 3.00 2.87 2.69 2.47 2.24 1.96 1.71 1.52 1.36 1.35 1.42 1.70 2.14 2.15 1.78 1.73 1.82 1.73 1.88 1.86 1.95 1.82 1.65 1.52
1.18 1.31 1.28 1.39 1.40 1.48 1.42 1.27 1.40 1.59 1.76 1.79 1.94 2.06 2.07 2.24 2.33 2.47 2.69 2.79 2.64 2.45 2.20 2.02 1.78 1.50 1.39 1.36 1.34 1.39 1.71 2.02 1.78 1.52 1.58 1.91 1.72 1.51 1.78 2.05 1.99 1.74 1.52
1.14 1.27 1.33 1.57 1.56 1.56 1.53 1.39 1.43 1.64 1.75 1.81 1.82 1.80 1.88 2.03 2.16 2.39 2.60 2.68 2.44 2.09 1.94 1.87 1.68 1.47 1.37 1.35 1.29 1.37 1.63 1.67 1.35 1.37 1.32 1.52 1.41 1.42 1.71 1.96 1.97 1.79 1.61
1.28 1.27 1.33 1.50 1.47 1.57 1.67 1.59 1.64 1.81 1.85 1.79 1.78 1.78 1.83 2.01 2.19 2.36 2.56 2.67 2.31 1.95 1.84 1.74 1.62 1.46 1.33 1.34 1.37 1.50 1.71 1.82 1.60 1.62 1.22 1.39 1.38 1.55 1.83 1.98 1.98 1.89 1.83
1.70 1.49 1.43 1.56 1.64 1.56 1.63 1.69 1.82 1.90 1.97 2.06 2.09 2.16 2.26 2.35 2.31 2.47 2.52 2.57 2.28 2.02 1.90 1.79 1.71 1.52 1.43 1.40 1.46 1.73 2.00 1.80 1.34 1.40 1.49 1.36 1.46 1.80 2.16 2.12 2.14 2.15 2.16
2.06 1.85 1.66 1.50 1.55 1.58 1.62 1.83 2.22 2.24 2.18 2.29 2.48 2.54 2.58 2.79 2.83 2.99 2.75 2.69 2.45 2.31 2.25 2.11 2.05 1.90 1.68 1.56 1.73 1.99 1.90 1.58 1.61 1.72 1.75 1.52 1.72 2.18 2.50 2.45 2.41 2.39 2.40
2.23 1.89 1.82 1.70 1.59 1.54 1.49 1.88 2.48 2.33 2.23 2.36 2.59 2.56 2.79 3.28 3.57 3.18 3.27 3.25 3.09 3.01 2.90 2.86 2.84 2.40 1.92 1.90 2.44 2.53 1.77 1.65 1.86 1.93 1.93 1.88 2.15 2.62 2.89 2.87 2.83 2.62 2.58
2.38 2.03 1.94 1.86 1.84 1.87 1.99 1.97 2.29 2.50 2.60 2.67 2.72 2.79 3.10 3.27 3.50 3.63 3.67 3.74 3.81 3.54 3.24 3.43 3.29 2.55 2.52 2.88 2.96 2.65 2.09 2.03 2.19 2.11 2.27 2.37 2.44 2.97 3.45 3.36 3.25 2.97 2.78
2.64 2.32 2.10 1.98 2.05 2.17 2.13 2.17 2.25 2.46 2.59 2.77 2.94 2.91 3.27 3.77 3.94 4.12 4.10 3.93 4.08 3.90 3.97 3.87 3.88 3.35 3.32 3.01 2.89 2.81 2.58 2.61 2.51 2.74 3.21 2.88 2.61 2.97 3.74 3.82 3.69 3.36 2.96
2.80 2.51 2.44 2.16 2.15 2.24 2.44 2.60 2.38 2.80 2.92 3.02 3.24 3.37 3.53 3.90 4.05 4.23 4.27 4.27 3.82 3.80 4.00 4.33 4.10 4.27 4.22 3.70 3.16 2.97 2.98 2.96 2.91 3.00 3.31 3.36 3.13 3.22 4.03 4.50 4.35 4.01 3.52
2.77 2.62 2.59 2.41 2.48 2.58 2.68 2.84 2.94 3.19 3.44 3.39 3.45 3.57 3.72 3.99 4.36 4.48 4.50 4.43 3.93 3.76 4.05 4.37 4.28 4.79 4.67 4.42 3.78 3.37 3.17 3.14 3.08 3.14 3.47 3.69 3.62 3.54 4.01 4.62 4.89 4.85 4.39
2.58 2.69 2.87 2.92 3.17 3.29 3.29 3.29 3.29 3.48 3.62 3.81 4.17 4.24 4.36 4.34 4.56 4.43 4.44 4.28 4.10 4.00 4.15 4.31 4.44 4.80 4.48 4.39 4.20 3.84 3.61 3.35 3.15 3.35 3.75 4.13 3.75 3.66 4.05 4.59 5.02 5.02 4.86
2.65 2.73 2.96 3.06 3.46 3.66 3.75 3.89 3.81 3.85 3.94 4.29 4.55 4.80 4.77 4.58 4.42 4.58 4.33 4.11 4.19 4.11 4.34 4.73 4.75 4.82 4.90 4.77 4.51 4.18 3.93 3.79 3.32 3.38 3.58 3.77 3.99 3.43 3.86 4.61 4.89 4.64 4.72
2.98 3.24 3.59 3.72 3.65 3.75 3.97 4.18 3.99 4.08 4.15 4.19 4.36 4.71 4.64 4.27 4.10 4.59 4.49 4.48 4.38 4.58 4.54 4.18 4.81 5.05 5.05 4.98 4.30 4.19 3.71 3.63 3.55 3.34 3.46 3.51 3.74 3.68 3.69 3.79 4.40 4.25 4.49
3.35 3.74 3.98 4.01 4.25 4.55 4.77 4.70 4.51 4.27 4.19 4.09 4.19 4.43 4.34 4.27 4.15 4.51 4.35 4.37 4.53 4.96 5.06 4.91 5.24 5.12 4.91 4.97 4.16 3.93 3.61 3.24 3.17 3.13 2.93 3.16 3.22 2.91 3.11 3.36 3.79 3.26 3.57
3.45 3.68 3.95 4.34 4.74 4.88 4.72 4.67 4.71 4.60 4.47 4.14 4.03 4.19 4.24 3.98 3.99 4.43 4.16 4.63 4.63 4.82 4.95 4.85 5.09 4.94 4.70 4.77 4.73 4.15 3.49 3.02 2.90 2.69 2.67 2.88 2.80 2.80 3.14 3.62 3.90 3.75 3.32
3.19 3.47 3.86 4.32 4.67 4.60 4.75 5.01 5.03 4.93 4.41 4.16 4.09 4.18 4.04 3.78 3.66 3.80 4.42 4.38 4.46 4.69 4.74 4.71 4.76 4.48 4.18 4.57 4.92 4.79 4.00 3.53 3.01 2.41 2.64 2.67 2.81 3.09 3.08 3.16 3.64 3.98 3.74
3.16 3.59 3.93 4.26 4.40 4.45 4.71 4.89 4.65 4.53 4.15 4.12 4.17 4.10 3.88 3.73 3.66 3.81 4.16 4.23 4.32 4.21 4.45 4.68 4.51 4.43 4.31 4.38 4.63 4.97 4.48 3.79 3.15 2.69 2.52 2.58 2.97 3.26 3.14 3.09 3.04 3.28 3.36
3.13 3.71 4.15 4.18 4.26 4.16 4.36 4.53 4.40 4.12 3.94 3.85 3.85 3.65 3.56 3.45 3.40 3.54 3.78 4.01 4.17 4.06 4.24 4.07 4.21 4.41 4.48 4.30 4.37 4.28 4.25 3.99 3.79 3.27 2.75 2.62 2.89 3.01 2.99 2.72 2.73 3.07 3.23
2.84 3.26 3.70 4.06 4.15 3.99 3.98 4.12 4.30 4.12 3.86 3.64 3.50 3.45 3.43 3.43 3.25 3.28 3.50 3.73 3.84 3.76 3.78 3.98 4.34 4.28 4.25 4.17 4.28 4.30 4.44 4.24 3.92 3.71 3.25 2.96 2.79 2.53 2.59 2.61 2.59 2.68 2.94
2.66 3.05 3.32 3.54 3.54 3.52 3.52 3.60 3.74 3.82 3.80 3.56 3.33 3.37 3.37 3.28 3.16 3.13 3.24 3.57 3.64 3.58 3.58 3.75 3.87 3.93 3.97 4.11 4.10 3.97 4.20 4.25 4.08 4.09 3.60 3.19 2.87 2.34 2.28 2.35 2.47 2.60 2.72